PEGASUS DEB, 24151

Orbit data source: Space-Track

PEGASUS DEB, 24151 is space debris in LEO originally from a launch on Thu, 19 May 1994 UTC launched from the Air Force Western Test Range (AFWTR). Debris objects in space refer to the collection of defunct objects orbiting the Earth. Examples of debris include non-operational satellites, rocket bodies, and fragments generated from explosions, collisions, or faulty payload assembly.

Loading next visibility...
Identifier
24151, 1994-029HA
Orbit
LEO
Country
Flag of USUS
Related business
Manufacturer
Unknown
Mission
Spacecraft
Bus & Motor
Unknown
Mass
Unknown
Launch date (UTC)
1994-05-19 (32 years ago)
Launch vehicle
Unknown
Launch site
Air Force Western Test Range (AFWTR)
Object type
Payload
Rocket body
Debris
Shape & HBR
Unknown shape, 0.2 m
Radar Cross Section
Small (<0.1 m²)

Expand to show TLE details & history
Last TLE update: 7 hours ago

TLE from 7 hours ago
0 PEGASUS DEB
1 24151U 94029HA  26062.61651285  .00001572  00000-0  25434-3 0  9993
2 24151  82.0165 291.6591 0150605  19.7961 340.8999 14.63385747577469
Epoch: 2026-03-03T14:47Z
TLE epoch observation values (Epoch: 2026-03-03T14:47:46.710Z)
Latitude
0.00003°
Longitude
-91.67853°
Altitude
584.934 km
Speed
7.621 km/s
True Right ascension
19h 26m 38s
True Declination
0° 00' 00"
Sunlit
Object was in daylight at epoch
Visualization orbit readout
Latitude
Unknown
Longitude
Unknown
Altitude
Unknown
Speed
Unknown
Apparent Right ascension
Unknown
Apparent Declination
Unknown
Sunlit
N/A
Visualization observer readout
Local Sidereal Time
01:59:21
Azimuth
Unknown
Elevation
Unknown
Doppler factor
Unknown
Orbital elements
Apogee altitude
785.618 km
Perigee altitude
573.04 km
Semi-major axis
7,057.466 km
Eccentricity
0.01506
Inclination
82.0165°
RAAN
291.6591°
Arg. of periapsis
19.7961°
True anomaly
340.32497°
Mean anomaly
340.8999°
Eccentric anomaly
340.61347°
Mean motion
3.66075 °/min
Orbital period
98.34 mins
BSTAR
0.00025434
Loading maneuver chart data...
Computing Atmospheric mass density...
Loading historical data...
Loading historical data...
Loading historical data...
Loading historical data...
Loading historical data...
Loading historical data...
Loading historical data...

Documentation

Showing up to 5 results
|